Other Public Products
Issued by NWS Charleston, SC

Home | Current Version | Previous Version | Text Only | Print | Product List | Glossary On
Versions: 1 2 3 4 5 6 7 8 9 10 11 12 13 14 15 16 17 18 19 20 21 22 23 24 25 26 27 28 29 30 31 32 33 34 35 36 37 38 39 40 41 42 43 44 45 46 47 48 49 50
000
FPUS82 KCHS 060527
OPUCHS

TEST...KCHS/KSAV Gateway Observations...TEST
National Weather Service Charleston SC
1200 AM EST TUE DEC 06 2016

NOTE: "fair" indicates few or no clouds below 12,000 feet with no
significant weather and/or obstructions to visibility.

SCZ050-WAZ558-NCZ071-TXZ119-213-PAZ071-DCZ001-FLZ074-172-MI076-
NYZ176-178-MAZ016-IL014-TNZ027-NJZ106-GAZ044-MD014-060600-
...Gateway Observations for Charleston International...

CITY           SKY/WX    TMP DP  RH WIND       PRES   REMARKS
Chas Airport   LGT RAIN  57  55  93 NE9       29.92F FOG
Seattle        PTCLDY    35  33  92 SE8       30.01R WCI  29
Charlotte      RAIN      50  46  86 NE9       30.03F
Dallas DFW     MOCLDY    49  46  90 S6        29.73S FOG
Dallas Love    MOCLDY    50  48  93 S6        29.74S FOG
Philladelphia  MOCLDY    40  30  67 N6        30.12S WCI  36
Wash National  CLOUDY    46  33  60 N8        30.14S
Baltimore      CLOUDY    43  31  62 CALM      30.13R
Miami          PTCLDY    77  72  84 SE10      29.97R
Detroit        PTCLDY    30  27  88 E5        30.06F WCI  25
Newark         PTCLDY    40  32  73 NW7       30.11R WCI  35
Laguardia      MOCLDY    45  31  58 NW8       30.10R
J F K          PTCLDY    44  29  55 NW10      30.11R
Boston Logan   CLEAR     37  31  78 W8        30.00R WCI  31
Ft. Lauderdale PTCLDY    78  72  81 S7        29.96R
Chicago O`Hare CLOUDY    33  32  96 SE8       29.93F FOG     WCI  26
Chicago Midway CLOUDY    35  31  85 SE6       29.94F FOG     WCI  30
Houston Bush   CLOUDY    52  50  93 W5        29.80R
Houston Hobby  MOCLDY    53  50  89 W9        29.80R
Nashville      CLOUDY    48  46  93 VRB3      29.75F
Atlanta        DRZL/FOG  52  52 100 E10       29.84F VSB 1/2

$$

GAZ044-118-TXZ119-213-NCZ071-DCZ001-MDZ014-506-PAZ021-071-NJZ106-
NYZ176-178-MAZ106-OHZ011-021-055-MIZ076-KYZ091-ILZ014-INZ047-
MNZ060-060600-
...Gateway Observations for Savannah International...

CITY           SKY/WX    TMP DP  RH WIND       PRES   REMARKS
Savannah Arpt  LGT RAIN  59  57  93 E9        29.88F
Atlanta        DRZL/FOG  52  52 100 E10       29.84F VSB 1/2
Charlotte      RAIN      50  46  86 NE9       30.03F
Dallas DFW     MOCLDY    49  46  90 S6        29.73S FOG
Houston Bush   CLOUDY    52  50  93 W5        29.80R
Wash National  CLOUDY    46  33  60 N8        30.14S
Wash Dulles    CLOUDY    39  32  76 NE5       30.13R WCI  36
Baltimore      CLOUDY    43  31  62 CALM      30.13R
Philadelphia   MOCLDY    40  30  67 N6        30.12S WCI  36
Newark         PTCLDY    40  32  73 NW7       30.11R WCI  35
Laguardia      MOCLDY    45  31  58 NW8       30.10R
J F K          PTCLDY    44  29  55 NW10      30.11R
Boston         CLEAR     37  31  78 W8        30.00R WCI  31
Pittsburg      CLOUDY    32  28  85 E3        30.06F
Akron          CLEAR     32  25  75 E10       30.05R WCI  24
Cleveland      PTCLDY    32  25  75 E7        30.08S WCI  26
Cincinnati     CLOUDY    40  33  76 NE12      29.89F WCI  33
Columbus       MOCLDY    33  30  90 E7        29.97F WCI  26
Detroit        PTCLDY    30  27  88 E5        30.06F WCI  25
Chicago O`Hare CLOUDY    33  32  96 SE8       29.93F FOG     WCI  26
Minneapolis    CLOUDY    40  34  79 S8        29.66S WCI  34
Indianapolis   CLOUDY    35  31  85 E12       29.89F WCI  27

$$




USA.gov is the U.S. government's official web portal to all federal, state and local government web resources and services.